Weather History for Meadow Lake, CO

Change the Weather History Date:

Thursday, October 17, 2013

  Actual Average (KCOS) Record (KCOS)
Temperature  
Mean Temperature 39 °F 49 °F  
Max Temperature 51 °F 63 °F 83 °F (1991)
Min Temperature 28 °F 35 °F 17 °F (1948)
Degree Days  
Heating Degree Days 26 16  
Month to date heating degree days 226  
Since 1 July heating degree days 416  
Cooling Degree Days 0 0  
Month to date cooling degree days 0  
Year to date cooling degree days 454  
Moisture  
Dew Point 25 °F    
Average Humidity 62    
Maximum Humidity 92    
Minimum Humidity 32    
Precipitation  
Precipitation 0.00 in 0.03 in 0.65 in (1994)
Month to date precipitation 0.48  
Year to date precipitation 15.46  
Snow  
Snow 0.00 in 0.10 in 1.50 in (2006)
Month to date snowfall 1.2  
Since 1 July snowfall 1.4  
Since 1 September snowfall 1.4  
Snow Depth -    
Sea Level Pressure  
Sea Level Pressure 30.08 in    
Wind  
Wind Speed 5 mph (ENE)    
Max Wind Speed 14 mph    
Max Gust Speed 22 mph    
Visibility 10 miles    
Events      
T = Trace of Precipitation, MM = Missing Value Source: NWS Daily Summary

Daily Weather History Graph

Daily Weather History Graph

Search for Another Location

Airport:

Trip Planner

Search our weather history database for the weather conditions in past years. The results will help you decide how hot, cold, wet, or windy it might be!

Date:

Astronomy

Oct. 17, 2013 Rise Set
Actual Time 7:10 AM MDT 6:16 PM MDT
Civil Twilight 6:43 AM MDT 6:43 PM MDT
Nautical Twilight 6:12 AM MDT 7:14 PM MDT
Astronomical Twilight 5:41 AM MDT 7:45 PM MDT
Moon 5:31 PM MDT (10/17) 5:45 AM MDT (10/17)
Length of Visible Light 12h 00m
Length of Day
11h 06m
Waxing Gibbous, 98% of the Moon is Illuminated
Oct 17
Waxing Gibbous
Oct 18
Full
Oct 26
Last Quarter
Nov 3
New
Nov 9
First Quarter

Hourly Weather History & Observations

Time (MDT) Temp. Windchill Dew Point Humidity Pressure Visibility Wind Dir Wind Speed Gust Speed Precip Events Conditions
12:14 AM 29.3 °F - 25.3 °F 85% 30.08 in 10.0 mi Calm Calm - N/A   Clear
12:34 AM 28.4 °F 23.3 °F 26.4 °F 92% 30.09 in 10.0 mi NNW 4.6 mph - N/A   Clear
12:54 AM 29.7 °F 26.1 °F 26.6 °F 88% 30.09 in 10.0 mi NNW 3.5 mph - N/A   Clear
1:14 AM 30.2 °F 26.7 °F 26.8 °F 87% 30.09 in 10.0 mi NNW 3.5 mph - N/A   Clear
1:34 AM 29.1 °F 24.1 °F 25.5 °F 86% 30.09 in 10.0 mi NNW 4.6 mph - N/A   Clear
1:54 AM 30.0 °F 26.5 °F 25.2 °F 82% 30.09 in 10.0 mi North 3.5 mph - N/A   Clear
2:14 AM 32.0 °F 27.5 °F 23.7 °F 71% 30.08 in 10.0 mi North 4.6 mph - N/A   Clear
2:34 AM 31.1 °F 27.7 °F 23.2 °F 72% 30.08 in 10.0 mi NNW 3.5 mph - N/A   Clear
2:54 AM 29.7 °F 23.7 °F 23.0 °F 76% 30.08 in 10.0 mi NW 5.8 mph - N/A   Clear
3:14 AM 30.2 °F 26.7 °F 23.5 °F 76% 30.08 in 10.0 mi NNW 3.5 mph - N/A   Clear
3:34 AM 29.8 °F 23.0 °F 23.9 °F 79% 30.08 in 10.0 mi NW 6.9 mph - N/A   Clear
3:54 AM 32.0 °F 28.7 °F 25.0 °F 75% 30.08 in 10.0 mi NNW 3.5 mph - N/A   Clear
4:14 AM 31.1 °F 27.7 °F 24.4 °F 76% 30.08 in 10.0 mi North 3.5 mph - N/A   Clear
4:34 AM 29.8 °F 24.9 °F 23.0 °F 76% 30.08 in 10.0 mi NW 4.6 mph - N/A   Clear
4:54 AM 30.2 °F 26.7 °F 23.9 °F 77% 30.08 in 10.0 mi North 3.5 mph - N/A   Clear
5:14 AM 31.8 °F 28.5 °F 23.2 °F 70% 30.09 in 10.0 mi NNE 3.5 mph - N/A   Clear
5:34 AM 30.4 °F 26.9 °F 23.4 °F 75% 30.09 in 10.0 mi ENE 3.5 mph - N/A   Clear
5:54 AM 33.4 °F 28.1 °F 23.9 °F 68% 30.10 in 10.0 mi NE 5.8 mph - N/A   Clear
6:14 AM 33.1 °F 26.9 °F 23.7 °F 68% 30.10 in 10.0 mi NE 6.9 mph - N/A   Clear
6:34 AM 34.2 °F 31.2 °F 24.4 °F 68% 30.10 in 10.0 mi NE 3.5 mph - N/A   Clear
6:54 AM 33.8 °F - 25.5 °F 72% 30.11 in 10.0 mi Calm Calm - N/A   Clear
7:14 AM 31.6 °F - 25.5 °F 78% 30.11 in 10.0 mi Calm Calm - N/A   Clear
7:34 AM 30.0 °F - 23.4 °F 76% 30.12 in 10.0 mi Calm Calm - N/A   Clear
7:54 AM 30.4 °F - 24.1 °F 77% 30.12 in 10.0 mi Calm Calm - N/A   Clear
8:14 AM 36.5 °F - 26.6 °F 67% 30.12 in 10.0 mi Calm Calm - N/A   Clear
8:34 AM 39.2 °F - 23.5 °F 53% 30.13 in 10.0 mi Calm Calm - N/A   Clear
8:54 AM 40.5 °F 37.3 °F 28.9 °F 64% 30.14 in 10.0 mi SSW 4.6 mph - N/A   Clear
9:14 AM 41.9 °F 39.0 °F 30.2 °F 63% 30.13 in 10.0 mi South 4.6 mph - N/A   Clear
9:34 AM 43.0 °F 38.8 °F 28.4 °F 56% 30.14 in 10.0 mi South 6.9 mph - N/A   Clear
9:54 AM 43.5 °F 40.1 °F 28.0 °F 54% 30.14 in 10.0 mi South 5.8 mph - N/A   Clear
10:14 AM 44.6 °F 40.7 °F 28.2 °F 53% 30.14 in 10.0 mi SSE 6.9 mph - N/A   Clear
10:34 AM 45.1 °F 40.8 °F 27.0 °F 49% 30.13 in 10.0 mi South 8.1 mph - N/A   Clear
10:54 AM 46.0 °F 41.9 °F 25.7 °F 45% 30.12 in 10.0 mi South 8.1 mph - N/A   Clear
11:14 AM 46.0 °F 41.9 °F 25.2 °F 44% 30.11 in 10.0 mi SSE 8.1 mph - N/A   Clear
11:34 AM 47.5 °F - 25.2 °F 42% 30.10 in 10.0 mi South 8.1 mph - N/A   Clear
11:54 AM 48.0 °F - 25.3 °F 41% 30.10 in 10.0 mi SSE 8.1 mph 16.1 mph N/A   Clear
12:14 PM 48.2 °F - 25.3 °F 41% 30.09 in 10.0 mi ESE 5.8 mph 18.4 mph N/A   Clear
12:34 PM 48.9 °F - 25.2 °F 40% 30.09 in 10.0 mi SE 8.1 mph 16.1 mph N/A   Clear
12:54 PM 49.8 °F - 25.2 °F 38% 30.07 in 10.0 mi SSE 13.8 mph 20.7 mph N/A   Clear
1:14 PM 49.1 °F - 23.7 °F 37% 30.06 in 10.0 mi SE 12.7 mph 19.6 mph N/A   Clear
1:34 PM 49.6 °F - 23.9 °F 37% 30.06 in 10.0 mi East 6.9 mph - N/A   Clear
1:54 PM 49.5 °F - 22.8 °F 35% 30.05 in 10.0 mi ESE 6.9 mph - N/A   Clear
2:14 PM 50.4 °F - 22.8 °F 34% 30.04 in 10.0 mi East 10.4 mph - N/A   Clear
2:34 PM 49.8 °F - 22.6 °F 34% 30.04 in 10.0 mi ESE 9.2 mph 17.3 mph N/A   Scattered Clouds
2:54 PM 50.5 °F - 22.8 °F 34% 30.04 in 10.0 mi ESE 4.6 mph 16.1 mph N/A   Clear
3:14 PM 50.4 °F - 21.9 °F 33% 30.03 in 10.0 mi ESE 6.9 mph - N/A   Clear
3:34 PM 50.2 °F - 21.2 °F 32% 30.02 in 10.0 mi ESE 8.1 mph - N/A   Clear
3:54 PM 50.0 °F - 20.7 °F 32% 30.02 in 10.0 mi ESE 6.9 mph 17.3 mph N/A   Clear
4:14 PM 50.7 °F - 21.9 °F 32% 30.02 in 10.0 mi East 8.1 mph - N/A   Clear
4:34 PM 49.3 °F - 21.2 °F 33% 30.02 in 10.0 mi SE 12.7 mph 21.9 mph N/A   Scattered Clouds
4:54 PM 46.8 °F - 20.8 °F 36% 30.03 in 10.0 mi SE 6.9 mph - N/A   Scattered Clouds
5:14 PM 45.9 °F 42.3 °F 22.3 °F 39% 30.04 in 10.0 mi East 6.9 mph - N/A   Mostly Cloudy
5:34 PM 45.5 °F 41.3 °F 22.3 °F 40% 30.04 in 10.0 mi ESE 8.1 mph - N/A   Overcast
5:54 PM 44.8 °F 41.6 °F 23.5 °F 43% 30.04 in 10.0 mi East 5.8 mph - N/A   Overcast
6:14 PM 42.8 °F 38.0 °F 24.4 °F 48% 30.04 in 10.0 mi SE 8.1 mph - N/A   Overcast
6:34 PM 41.4 °F 34.7 °F 27.9 °F 59% 30.05 in 10.0 mi NNE 11.5 mph 17.3 mph N/A   Overcast
6:54 PM 40.1 °F 35.3 °F 29.3 °F 65% 30.05 in 10.0 mi NNE 6.9 mph 19.6 mph N/A   Overcast
7:14 PM 39.0 °F 33.4 °F 29.3 °F 68% 30.06 in 10.0 mi NE 8.1 mph 20.7 mph N/A   Overcast
7:34 PM 38.3 °F 32.5 °F 29.1 °F 70% 30.07 in 10.0 mi NNE 8.1 mph 19.6 mph N/A   Overcast
7:54 PM 37.4 °F 31.4 °F 29.1 °F 72% 30.07 in 10.0 mi NNE 8.1 mph - N/A   Overcast
8:14 PM 36.5 °F 30.3 °F 28.9 °F 74% 30.08 in 10.0 mi NNE 8.1 mph - N/A   Overcast
8:34 PM 36.0 °F 29.0 °F 28.9 °F 76% 30.08 in 10.0 mi NE 9.2 mph - N/A   Overcast
8:54 PM 35.1 °F 29.3 °F 28.8 °F 78% 30.08 in 10.0 mi NNE 6.9 mph - N/A   Overcast
9:14 PM 34.3 °F 27.0 °F 28.4 °F 79% 30.08 in 10.0 mi NNE 9.2 mph - N/A   Overcast
9:34 PM 34.7 °F 29.6 °F 28.4 °F 78% 30.09 in 10.0 mi North 5.8 mph - N/A   Overcast
9:54 PM 34.0 °F 29.8 °F 28.4 °F 80% 30.09 in 10.0 mi North 4.6 mph - N/A   Overcast
10:14 PM 34.5 °F 31.6 °F 28.6 °F 79% 30.09 in 10.0 mi North 3.5 mph - N/A   Overcast
10:34 PM 35.1 °F 32.2 °F 28.8 °F 78% 30.09 in 10.0 mi NNW 3.5 mph - N/A   Overcast
10:54 PM 35.2 °F 32.4 °F 28.6 °F 77% 30.09 in 10.0 mi North 3.5 mph - N/A   Overcast
11:14 PM 34.7 °F 29.6 °F 28.4 °F 78% 30.08 in 10.0 mi NE 5.8 mph - N/A   Overcast
11:34 PM 34.3 °F - 28.6 °F 79% 30.08 in 10.0 mi Calm Calm - N/A   Overcast
11:54 PM 33.8 °F 30.8 °F 29.1 °F 83% 30.08 in 10.0 mi ESE 3.5 mph - N/A   Overcast